GW3642 Weather Reports


time (UTC)temp
F
wind
direction
speed
knots
gust
knots
rain 1hr
in
rain 24hr
in
rain mn
in
humidity
%
barometer
mb
20260508154518 55 314 2.6 7.8 0.00 0.00 0.00 62 1011.7
20260508154006 55 297 2.6 7.0 0.00 0.00 0.00 62 1011.8
20260508153510 54 272 1.7 6.1 0.00 0.00 0.00 62 1011.9
20260508153020 54 274 1.7 4.3 0.00 0.00 0.00 61 1011.8
20260508152510 54 299 1.7 5.2 0.00 0.00 0.00 62 1011.7
20260508152010 53 258 3.5 5.2 0.00 0.00 0.00 61 1011.8
20260508151506 53 295 1.7 5.2 0.00 0.00 0.00 62 1011.8
20260508151003 53 230 0.9 5.2 0.00 0.00 0.00 64 1011.8
20260508150503 53 283 0.9 7.0 0.00 0.00 0.00 64 1011.9
20260508150014 53 238 1.7 7.0 0.00 0.00 0.00 63 1011.9
20260508145502 53 281 2.6 7.0 0.00 0.00 0.00 63 1011.9
20260508145001 53 238 1.7 6.1 0.00 0.00 0.00 66 1011.9
20260508144515 53 271 1.7 6.1 0.00 0.00 0.00 64 1011.9
20260508144005 52 248 1.7 6.1 0.00 0.00 0.00 63 1011.9
20260508143507 52 247 1.7 6.1 0.00 0.00 0.00 64 1011.9
20260508143016 52 300 2.6 6.1 0.00 0.00 0.00 64 1011.8
20260508142506 52 238 1.7 6.1 0.00 0.00 0.00 65 1011.8
20260508142007 52 265 2.6 6.1 0.00 0.00 0.00 65 1011.8
20260508141535 52 284 1.7 6.1 0.00 0.00 0.00 66 1012.0
20260508141010 52 279 3.5 6.1 0.00 0.00 0.00 65 1012.0
20260508140516 52 219 1.7 5.2 0.00 0.00 0.00 66 1012.0
20260508140028 52 267 0.9 5.2 0.00 0.00 0.00 66 1012.0
20260508135506 52 302 1.7 5.2 0.00 0.00 0.00 65 1012.0
20260508135003 51 253 2.6 5.2 0.00 0.00 0.00 65 1012.0
20260508134517 51 246 2.6 7.0 0.00 0.00 0.00 65 1012.1
20260508134005 52 276 2.6 7.0 0.00 0.00 0.00 64 1012.1
20260508133507 52 224 2.6 7.0 0.00 0.00 0.00 65 1012.0
20260508133015 52 244 1.7 5.2 0.00 0.00 0.00 65 1011.9
20260508132511 52 276 2.6 5.2 0.00 0.00 0.00 65 1011.9
20260508132007 52 274 1.7 5.2 0.00 0.00 0.00 66 1011.9
20260508131522 52 287 2.6 5.2 0.00 0.00 0.00 64 1011.9
20260508131007 52 224 2.6 5.2 0.00 0.00 0.00 64 1011.8
20260508130507 51 264 0.9 7.8 0.00 0.00 0.00 66 1011.8
20260508130023 51 212 2.6 7.8 0.00 0.00 0.00 66 1011.9
20260508125510 51 239 4.3 8.7 0.00 0.00 0.00 65 1012.0
20260508125014 51 269 2.6 8.7 0.00 0.00 0.00 65 1011.9
20260508124531 51 255 3.5 7.8 0.00 0.00 0.00 65 1011.9
20260508124010 51 322 2.6 6.1 0.00 0.00 0.00 66 1011.8
20260508123511 50 307 2.6 7.0 0.00 0.00 0.00 67 1011.8
20260508123014 50 285 1.7 7.0 0.00 0.00 0.00 67 1011.8
20260508122503 49 277 1.7 6.1 0.00 0.00 0.00 68 1011.8
20260508122005 49 225 1.7 6.1 0.00 0.00 0.00 69 1011.8
20260508121516 48 230 2.6 6.1 0.00 0.00 0.00 69 1011.7
20260508121005 48 238 1.7 3.5 0.00 0.00 0.00 70 1011.6
20260508120506 48 217 1.7 4.3 0.00 0.00 0.00 70 1011.6
20260508120022 48 269 1.7 4.3 0.00 0.00 0.00 70 1011.7
20260508115507 48 274 1.7 4.3 0.00 0.00 0.00 71 1011.7
20260508115006 48 273 0.9 4.3 0.00 0.00 0.00 71 1011.7
20260508114524 47 257 1.7 4.3 0.00 0.00 0.00 70 1011.7
20260508114007 47 250 1.7 4.3 0.00 0.00 0.00 71 1011.6
20260508113510 47 252 0.0 2.6 0.00 0.00 0.00 72 1011.5
20260508113039 47 236 0.9 2.6 0.00 0.00 0.00 72 1011.5
20260508112510 46 272 0.9 2.6 0.00 0.00 0.00 73 1011.4
20260508112009 46 283 0.9 3.5 0.00 0.00 0.00 74 1011.5
20260508111528 45 225 0.9 3.5 0.00 0.00 0.00 75 1011.5
20260508111011 44 251 0.0 2.6 0.00 0.00 0.00 77 1011.6
20260508110504 44 233 0.0 1.7 0.00 0.00 0.00 79 1011.5
20260508110018 43 278 0.0 0.0 0.00 0.00 0.00 80 1011.4
20260508105505 42 278 0.0 0.9 0.00 0.00 0.00 81 1011.4
20260508105010 42 278 0.0 1.7 0.00 0.00 0.00 81 1011.3
20260508104522 42 279 0.0 1.7 0.00 0.00 0.00 82 1011.3
20260508104008 42 283 0.0 1.7 0.00 0.00 0.00 83 1011.2
20260508103508 41 272 0.0 0.9 0.00 0.00 0.00 84 1011.2
20260508103032 41 288 0.0 0.9 0.00 0.00 0.00 85 1011.1
20260508102504 41 246 0.0 0.9 0.00 0.00 0.00 86 1011.0
20260508102005 41 246 0.0 0.9 0.00 0.00 0.00 86 1011.0
20260508101518 40 240 0.0 0.0 0.00 0.00 0.00 88 1010.9
20260508101006 40 240 0.0 0.0 0.00 0.00 0.00 89 1010.9
20260508100503 40 240 0.0 0.0 0.00 0.00 0.00 90 1010.9
20260508100016 40 240 0.0 0.0 0.00 0.00 0.00 90 1010.9
20260508095505 40 240 0.0 0.0 0.00 0.00 0.00 90 1010.9
20260508095005 40 240 0.0 0.9 0.00 0.00 0.00 90 1010.9
20260508094518 40 240 0.0 0.9 0.00 0.00 0.00 90 1010.9
20260508094007 40 134 0.0 0.0 0.00 0.00 0.00 90 1011.0
20260508093509 40 134 0.0 0.0 0.00 0.00 0.00 90 1010.9
20260508093026 40 134 0.0 0.0 0.00 0.00 0.00 91 1011.0
20260508092503 40 134 0.0 0.0 0.00 0.00 0.00 91 1011.0
20260508092003 40 134 0.0 0.0 0.00 0.00 0.00 91 1011.1
20260508091507 40 134 0.0 0.0 0.00 0.00 0.00 91 1011.2
20260508091005 40 134 0.0 0.0 0.00 0.00 0.00 91 1011.2
20260508090504 40 134 0.0 0.0 0.00 0.00 0.00 91 1011.3
20260508090021 40 134 0.0 0.0 0.00 0.00 0.00 91 1011.3
20260508085504 40 134 0.0 0.0 0.00 0.00 0.00 90 1011.3
20260508085003 41 134 0.0 0.0 0.00 0.00 0.00 90 1011.3
20260508084514 41 134 0.0 0.0 0.00 0.00 0.00 90 1011.3
20260508084006 41 134 0.0 0.0 0.00 0.00 0.00 90 1011.3
20260508083505 41 134 0.0 0.0 0.00 0.00 0.00 89 1011.2
20260508083022 41 134 0.0 0.0 0.00 0.00 0.00 88 1011.3
20260508082508 41 134 0.0 0.0 0.00 0.00 0.00 87 1011.2
20260508082010 42 134 0.0 0.0 0.00 0.00 0.00 86 1011.3
20260508081525 42 134 0.0 0.0 0.00 0.00 0.00 85 1011.2
20260508081008 43 134 0.0 0.0 0.00 0.00 0.00 85 1011.2
20260508080510 43 134 0.0 0.0 0.00 0.00 0.00 85 1011.2
20260508080009 43 134 0.0 0.0 0.00 0.00 0.00 84 1011.2
20260508075504 44 134 0.0 0.0 0.00 0.00 0.00 83 1011.3
20260508075005 44 134 0.0 0.9 0.00 0.00 0.00 83 1011.3
20260508074523 45 134 0.0 0.9 0.00 0.00 0.00 82 1011.4
20260508074004 45 134 0.0 0.0 0.00 0.00 0.00 82 1011.3
20260508073505 45 134 0.0 0.0 0.00 0.00 0.00 82 1011.2
20260508073017 45 134 0.0 0.0 0.00 0.00 0.00 79 1011.3
20260508072503 46 134 0.0 0.0 0.00 0.00 0.00 79 1011.3
20260508072004 46 134 0.0 0.0 0.00 0.00 0.00 80 1011.4
20260508071531 46 134 0.0 0.0 0.00 0.00 0.00 79 1011.4
20260508071004 47 134 0.0 0.0 0.00 0.00 0.00 79 1011.4
20260508070510 47 134 0.0 0.0 0.00 0.00 0.00 77 1011.5
20260508070025 47 134 0.0 0.0 0.00 0.00 0.00 77 1011.5
20260508065508 47 134 0.0 0.0 0.00 0.00 0.00 78 1011.5
20260508065007 47 134 0.0 0.0 0.00 0.00 0.00 78 1011.4
20260508064526 48 134 0.0 0.0 0.00 0.00 0.00 77 1011.5
20260508064010 48 134 0.0 0.0 0.00 0.00 0.00 75 1011.5
20260508063502 48 134 0.0 0.0 0.00 0.00 0.00 75 1011.6
20260508063014 48 247 0.0 0.0 0.00 0.00 0.00 73 1011.7
20260508062504 48 247 0.0 0.9 0.00 0.00 0.00 73 1012.0
20260508062004 49 247 0.0 3.5 0.00 0.00 0.00 71 1012.1
20260508061521 49 255 0.0 3.5 0.00 0.00 0.00 71 1012.2
20260508061005 49 283 0.9 4.3 0.00 0.00 0.00 71 1012.3
20260508060505 49 267 1.7 4.3 0.00 0.00 0.00 70 1012.4
20260508060022 49 289 1.7 5.2 0.00 0.00 0.00 70 1012.5
20260508055506 49 249 1.7 5.2 0.00 0.00 0.00 70 1012.7
20260508055007 49 299 0.9 10.4 0.00 0.00 0.00 70 1012.7
20260508054525 49 260 1.7 10.4 0.00 0.00 0.00 71 1012.7
20260508054010 48 3 0.9 2.6 0.00 0.00 0.00 74 1012.8
20260508053509 48 302 0.9 2.6 0.00 0.00 0.00 73 1012.6
20260508053028 48 310 0.9 1.7 0.00 0.00 0.00 73 1012.3
20260508052511 48 127 0.0 0.9 0.00 0.00 0.00 72 1012.0
20260508052009 47 127 0.0 0.0 0.00 0.00 0.00 72 1011.8
20260508051527 47 127 0.0 0.0 0.00 0.00 0.00 74 1011.8
20260508051006 47 127 0.0 0.0 0.00 0.00 0.00 73 1011.8
20260508050506 47 127 0.0 0.9 0.00 0.00 0.00 74 1011.8
20260508050024 47 127 0.0 0.9 0.00 0.00 0.00 75 1011.8
20260508045507 47 127 0.0 0.0 0.00 0.00 0.00 73 1011.8
20260508045006 47 127 0.0 0.0 0.00 0.00 0.00 76 1011.8
20260508044524 47 127 0.0 0.0 0.00 0.00 0.00 75 1011.9
20260508044007 47 127 0.0 0.0 0.00 0.00 0.00 76 1011.8
20260508043509 47 127 0.0 0.0 0.00 0.00 0.00 74 1011.9
20260508043025 47 127 0.0 0.9 0.00 0.00 0.00 76 1011.9
20260508042511 47 127 0.0 0.9 0.00 0.00 0.00 76 1011.9
20260508042012 47 134 0.0 0.0 0.00 0.00 0.00 79 1011.9
20260508041528 47 147 0.0 0.0 0.00 0.00 0.00 78 1011.9
20260508041010 47 147 0.0 0.0 0.00 0.00 0.00 75 1012.0
20260508040512 47 147 0.0 0.0 0.00 0.00 0.00 74 1012.0
20260508040028 47 147 0.0 0.0 0.00 0.00 0.00 75 1011.9
20260508035502 47 147 0.0 0.0 0.00 0.00 0.00 75 1011.9
20260508035002 47 147 0.0 0.0 0.00 0.00 0.00 75 1011.9
20260508034506 48 147 0.0 0.0 0.00 0.00 0.00 75 1011.9
20260508034003 48 147 0.0 0.0 0.00 0.00 0.00 75 1012.0
20260508033505 47 147 0.0 0.0 0.00 0.00 0.00 74 1012.0
20260508033004 47 147 0.0 0.0 0.00 0.00 0.00 71 1012.1
20260508032504 47 147 0.0 0.9 0.00 0.00 0.00 72 1012.1
20260508032005 47 147 0.0 0.9 0.00 0.00 0.00 73 1012.1
20260508031508 47 153 0.0 0.9 0.00 0.00 0.00 75 1012.0
20260508031003 47 154 0.0 0.0 0.00 0.00 0.00 73 1012.1
20260508030503 47 154 0.0 0.0 0.00 0.00 0.00 72 1012.2
20260508030008 47 154 0.0 0.0 0.00 0.00 0.00 71 1012.1
20260508025503 47 153 0.0 0.0 0.00 0.00 0.00 70 1012.0
20260508025005 47 154 0.0 0.0 0.00 0.00 0.00 75 1012.1
20260508024509 47 154 0.0 0.0 0.00 0.00 0.00 77 1012.0
20260508024002 47 153 0.0 0.0 0.00 0.00 0.00 78 1011.9
20260508023502 47 154 0.0 0.0 0.00 0.00 0.00 73 1011.9
20260508023004 47 154 0.0 0.0 0.00 0.00 0.00 71 1012.0
20260508022503 47 153 0.0 0.0 0.00 0.00 0.00 69 1012.0
20260508022003 47 154 0.0 0.0 0.00 0.00 0.00 68 1011.9
20260508021515 47 154 0.0 0.0 0.00 0.00 0.00 69 1011.9
20260508021004 48 154 0.0 0.0 0.00 0.00 0.00 70 1011.9
20260508020503 48 154 0.0 0.0 0.00 0.00 0.00 70 1011.9
20260508020008 48 154 0.0 0.0 0.00 0.00 0.00 70 1011.9
20260508015502 47 153 0.0 0.0 0.00 0.00 0.00 70 1012.0
20260508015007 47 153 0.0 0.0 0.00 0.00 0.00 69 1012.0
20260508014513 47 154 0.0 0.0 0.00 0.00 0.00 69 1012.0
20260508014004 47 153 0.0 0.0 0.00 0.00 0.00 68 1012.0
20260508013502 48 154 0.0 0.0 0.00 0.00 0.00 64 1012.0
20260508013022 48 154 0.0 0.0 0.00 0.00 0.00 64 1011.9
20260508012506 48 154 0.0 0.0 0.00 0.00 0.00 66 1011.8
20260508012004 48 132 0.0 0.0 0.00 0.00 0.00 64 1011.8
20260508011508 48 252 0.0 0.0 0.00 0.00 0.00 63 1011.8
20260508011006 48 252 0.0 0.0 0.00 0.00 0.00 62 1011.8
20260508010503 48 252 0.0 0.0 0.00 0.00 0.00 60 1011.8
20260508010011 48 252 0.0 0.0 0.00 0.00 0.00 60 1011.8
20260508005505 48 252 0.0 0.0 0.00 0.00 0.00 59 1011.8
20260508005006 49 252 0.0 0.0 0.00 0.00 0.00 58 1011.8
20260508004509 50 252 0.0 0.0 0.00 0.00 0.00 58 1011.7
20260508004004 50 252 0.0 0.0 0.00 0.00 0.00 57 1011.7
20260508003511 51 252 0.0 0.9 0.00 0.00 0.00 56 1011.8
20260508003012 51 252 0.0 0.9 0.00 0.00 0.00 54 1011.7
20260508002504 52 252 0.0 0.9 0.00 0.00 0.00 52 1011.6
20260508002004 52 251 0.0 0.9 0.00 0.00 0.00 50 1011.6
20260508001517 53 273 0.0 0.0 0.00 0.00 0.00 49 1011.5
20260508001004 53 273 0.0 3.5 0.00 0.00 0.00 48 1011.5
20260508000504 54 273 0.0 3.5 0.00 0.00 0.00 46 1011.4
20260508000013 54 274 0.9 3.5 0.00 0.00 0.00 45 1011.4
20260507235503 54 231 0.0 2.6 0.00 0.00 0.00 44 1011.4
20260507235002 55 250 0.9 2.6 0.00 0.00 0.00 44 1011.3
20260507234504 55 276 0.0 3.5 0.00 0.00 0.00 43 1011.3
20260507234004 56 279 1.7 5.2 0.00 0.00 0.00 42 1011.3
20260507233504 56 313 1.7 6.1 0.00 0.00 0.00 42 1011.3
20260507233015 56 334 3.5 6.1 0.00 0.00 0.00 41 1011.3
20260507232504 57 319 1.7 3.5 0.00 0.00 0.00 41 1011.3
20260507232003 57 315 1.7 4.3 0.00 0.00 0.00 41 1011.3
20260507231513 57 296 2.6 4.3 0.00 0.00 0.00 41 1011.3
20260507231003 57 314 1.7 4.3 0.00 0.00 0.00 41 1011.3
20260507230507 57 328 2.6 4.3 0.00 0.00 0.00 41 1011.3
20260507230017 57 295 2.6 6.1 0.00 0.00 0.00 41 1011.4
20260507225504 57 273 1.7 7.0 0.00 0.00 0.00 41 1011.4
20260507225007 57 290 3.5 7.0 0.00 0.00 0.00 41 1011.4
20260507224517 58 302 1.7 8.7 0.00 0.00 0.00 41 1011.5
20260507224006 57 274 2.6 8.7 0.00 0.00 0.00 41 1011.5
20260507223504 57 272 4.3 7.8 0.00 0.00 0.00 41 1011.6
20260507223006 58 335 4.3 8.7 0.00 0.00 0.00 40 1011.6
20260507222504 58 300 4.3 11.3 0.00 0.00 0.00 42 1011.5
20260507222004 58 314 7.0 11.3 0.00 0.00 0.00 39 1011.5
20260507221517 58 307 4.3 8.7 0.00 0.00 0.00 39 1011.6
20260507221008 58 300 4.3 7.8 0.00 0.00 0.00 40 1011.6
20260507220506 58 275 4.3 8.7 0.00 0.00 0.00 41 1011.6
20260507220016 57 305 2.6 8.7 0.00 0.00 0.00 42 1011.6
20260507215504 56 319 4.3 9.6 0.00 0.00 0.00 42 1011.7
20260507215006 57 315 4.3 9.6 0.00 0.00 0.00 41 1011.6
20260507214525 57 279 4.3 9.6 0.00 0.00 0.00 42 1011.4
20260507214011 58 323 5.2 9.6 0.00 0.00 0.00 40 1011.5
20260507213513 58 249 7.0 10.4 0.00 0.00 0.00 41 1011.5
20260507213021 57 304 3.5 11.3 0.00 0.00 0.00 43 1011.4
20260507212507 57 292 5.2 11.3 0.00 0.00 0.00 42 1011.4
20260507212008 57 313 5.2 11.3 0.00 0.00 0.00 41 1011.4
20260507211522 58 326 4.3 11.3 0.00 0.00 0.00 43 1011.4
20260507211004 57 358 4.3 10.4 0.00 0.00 0.00 43 1011.3
20260507210504 56 299 5.2 10.4 0.00 0.00 0.00 42 1011.3
20260507210031 56 302 4.3 10.4 0.00 0.00 0.00 42 1011.4
20260507205505 57 304 5.2 12.2 0.00 0.00 0.00 40 1011.3
20260507205006 58 300 4.3 14.8 0.00 0.00 0.00 42 1011.3
20260507204513 57 307 6.1 14.8 0.00 0.00 0.00 39 1011.3
20260507204008 57 336 5.2 9.6 0.00 0.00 0.00 43 1011.2
20260507203506 57 294 4.3 10.4 0.00 0.00 0.00 41 1011.2
20260507203022 57 317 3.5 10.4 0.00 0.00 0.00 44 1011.1
20260507202507 57 295 3.5 9.6 0.00 0.00 0.00 43 1011.2
20260507202007 57 40 3.5 16.5 0.00 0.00 0.00 47 1011.1
20260507201522 56 348 7.0 16.5 0.00 0.00 0.00 44 1011.3
20260507201008 56 302 5.2 12.2 0.00 0.00 0.00 44 1011.4
20260507200508 57 301 7.0 12.2 0.00 0.00 0.00 44 1011.5
20260507200027 57 319 4.3 9.6 0.00 0.00 0.00 45 1011.3
20260507195508 57 303 4.3 11.3 0.00 0.00 0.00 48 1011.3
20260507195007 56 307 3.5 12.2 0.00 0.00 0.00 44 1011.3
20260507194513 56 25 4.3 12.2 0.00 0.00 0.00 45 1011.3
20260507194005 56 315 4.3 14.8 0.00 0.00 0.00 43 1011.4
20260507193506 57 335 7.0 14.8 0.00 0.00 0.00 44 1011.5
20260507193018 57 321 6.1 13.0 0.00 0.00 0.00 52 1011.5
20260507192507 56 321 4.3 11.3 0.00 0.00 0.00 47 1011.3
20260507192006 55 316 4.3 13.0 0.00 0.00 0.00 45 1011.4
20260507191522 57 317 7.0 13.0 0.00 0.00 0.00 46 1011.5
20260507191008 57 6 5.2 13.0 0.00 0.00 0.00 49 1011.6
20260507190507 57 321 6.1 12.2 0.00 0.00 0.00 48 1011.6
20260507190026 56 259 5.2 14.8 0.00 0.00 0.00 47 1011.6
20260507185506 56 302 7.0 14.8 0.00 0.00 0.00 50 1011.6
20260507185013 56 283 7.8 12.2 0.00 0.00 0.00 48 1011.7
20260507184525 56 314 4.3 13.9 0.00 0.00 0.00 49 1011.6
20260507184007 56 291 7.8 13.9 0.00 0.00 0.00 47 1011.6
20260507183511 56 278 6.1 11.3 0.00 0.00 0.00 46 1011.6
20260507183034 56 351 6.1 11.3 0.00 0.00 0.00 52 1011.7
20260507182507 55 279 4.3 12.2 0.00 0.00 0.00 51 1011.7
20260507182004 56 356 3.5 12.2 0.00 0.00 0.00 54 1011.7
20260507181518 56 297 7.0 12.2 0.00 0.00 0.00 53 1011.8
20260507181002 56 333 5.2 9.6 0.00 0.00 0.00 49 1011.7
20260507180502 55 320 4.3 13.0 0.00 0.00 0.00 49 1011.7
20260507180005 55 335 6.1 13.0 0.00 0.00 0.00 50 1011.7
20260507175501 55 302 3.5 13.0 0.00 0.00 0.00 52 1011.7
20260507175003 55 296 5.2 12.2 0.00 0.00 0.00 51 1011.6
20260507174510 55 307 4.3 12.2 0.00 0.00 0.00 50 1011.9
20260507174003 55 322 7.0 11.3 0.00 0.00 0.00 48 1011.8
20260507173503 55 309 6.1 12.2 0.00 0.00 0.00 46 1011.9
20260507173012 55 300 5.2 12.2 0.00 0.00 0.00 49 1011.8
20260507172504 55 10 4.3 10.4 0.00 0.00 0.00 50 1011.9
20260507172005 55 316 5.2 10.4 0.00 0.00 0.00 53 1012.0
20260507171514 55 308 4.3 9.6 0.00 0.00 0.00 53 1012.1
20260507171006 55 318 5.2 9.6 0.00 0.00 0.00 54 1012.2
20260507170505 55 285 4.3 8.7 0.00 0.00 0.00 54 1012.1
20260507170020 55 297 4.3 13.9 0.00 0.00 0.00 50 1012.4
20260507165506 55 288 6.1 13.9 0.00 0.00 0.00 55 1012.4
20260507165005 55 302 5.2 9.6 0.00 0.00 0.00 51 1012.4
20260507164503 54 307 5.2 9.6 0.00 0.00 0.00 52 1012.4
20260507164003 54 302 3.5 11.3 0.00 0.00 0.00 52 1012.4
20260507163502 54 321 2.6 11.3 0.00 0.00 0.00 50 1012.4
20260507163006 54 312 5.2 10.4 0.00 0.00 0.00 52 1012.5
20260507162503 54 284 3.5 10.4 0.00 0.00 0.00 52 1012.4
20260507162004 54 273 6.1 10.4 0.00 0.00 0.00 52 1012.4
20260507161511 53 269 5.2 13.0 0.00 0.00 0.00 48 1012.3
20260507161008 53 302 7.8 13.0 0.00 0.00 0.00 49 1012.3
20260507160506 54 305 4.3 10.4 0.00 0.00 0.00 53 1012.3
20260507160020 54 252 5.2 9.6 0.00 0.00 0.00 51 1012.2
20260507155506 53 268 5.2 9.6 0.00 0.00 0.00 52 1012.2
20260507155007 53 341 5.2 9.6 0.00 0.00 0.00 54 1012.2